Weather History for HEGN - September, 2012

Change the Weather History Date:

Sunday, September 16, 2012

  Actual Average Record
Temperature  
Mean Temperature 84 °F -  
Max Temperature 95 °F 88 °F 104 °F (2014)
Min Temperature 74 °F 74 °F 73 °F (2004)
Cooling Degree Days 20    
Growing Degree Days 34 (Base 50)    
Moisture  
Dew Point 66 °F    
Average Humidity 52    
Maximum Humidity 66    
Minimum Humidity 36    
Precipitation  
Precipitation 0.00 in - - ()
Sea Level Pressure  
Sea Level Pressure 29.74 in    
Wind  
Wind Speed 5 mph ()    
Max Wind Speed 13 mph    
Max Gust Speed -    
Visibility 6.0 miles    
Events      
Averages and records for this station are not official NWS values.
T = Trace of Precipitation, MM = Missing Value Source: Averaged Metar Reports

Daily Weather History Graph

Daily Weather History Graph

Search for Another Location

Airport or City:

Trip Planner

Search our weather history database for the weather conditions in past years. The results will help you decide how hot, cold, wet, or windy it might be!

Date:

Astronomy

Sep. 16, 2012 Rise Set
Actual Time 5:30 AM EET 5:47 PM EET
Civil Twilight 5:07 AM EET 6:11 PM EET
Nautical Twilight 4:40 AM EET 6:38 PM EET
Astronomical Twilight 4:12 AM EET 7:05 PM EET
Moon 5:39 AM EET (9/16) 5:50 PM EET (9/16)
Length of Visible Light 13h 03m
Length of Day
12h 17m
New Moon, 0% of the Moon is Illuminated
Sep 16
New Moon
Sep 22
First Quarter
Sep 30
Full
Oct 8
Last Quarter
Oct 15
New

Hourly Weather History & Observations

Time (EET) Temp. Heat Index Dew Point Humidity Pressure Visibility Wind Dir Wind Speed Gust Speed Precip Events Conditions
12:00 AM 78.8 °F - 59.0 °F 51% 29.71 in - WSW 4.6 mph - N/A   Clear
1:00 AM 80.6 °F 81.5 °F 60.8 °F 51% 29.74 in - WSW 2.3 mph - N/A   Clear
2:00 AM 79 °F - 57 °F 36% 29.74 in 6 mi West 4.6 mph - -  
2:00 AM 78.8 °F - 57.2 °F 47% 29.74 in - West 4.6 mph - N/A   Clear
3:00 AM 78.8 °F - 66.2 °F 65% 29.74 in - WNW 3.5 mph - N/A   Clear
4:00 AM 77.0 °F - 57.2 °F 50% 29.74 in - NW 2.3 mph - N/A   Clear
5:00 AM 75.2 °F - 57.2 °F 53% 29.74 in - NW 6.9 mph - N/A   Clear
6:00 AM 75.2 °F - 57.2 °F 53% 29.77 in - WNW 5.8 mph - N/A   Clear
7:00 AM 82.4 °F 82.9 °F 60.8 °F 48% 29.77 in - NW 8.1 mph - N/A   Clear
8:00 AM 86 °F - 64 °F 38% 29.79 in 6 mi NNW 10.4 mph - -  
8:00 AM 86.0 °F 87.3 °F 64.4 °F 48% 29.77 in - NNW 10.4 mph - N/A   Clear
9:00 AM 87.8 °F 92.6 °F 69.8 °F 55% 29.77 in - North 12.7 mph - N/A   Clear
10:00 AM 89.6 °F 94.7 °F 69.8 °F 52% 29.77 in - North 11.5 mph - N/A   Clear
11:00 AM 91.4 °F 95.4 °F 68.0 °F 46% 29.77 in - North 10.4 mph - N/A   Clear
12:00 PM 93.2 °F 97.7 °F 68.0 °F 44% 29.77 in - NNE 9.2 mph - N/A   Clear
1:00 PM 93.2 °F 98.8 °F 69.8 °F 46% 29.74 in - NE 9.2 mph - N/A   Clear
2:00 PM 95.0 °F 99.5 °F 68.0 °F 41% 29.74 in - East 6.9 mph - N/A   Clear
3:00 PM 91.4 °F 100.1 °F 73.4 °F 55% 29.71 in - SE 5.8 mph - N/A   Clear
4:00 PM 89.6 °F 98.2 °F 73.4 °F 59% 29.71 in - SSE 5.8 mph - N/A   Clear
5:00 PM 87.8 °F 95.6 °F 73.4 °F 62% 29.71 in - SSE 3.5 mph - N/A   Clear
6:00 PM 86.0 °F 90.4 °F 69.8 °F 58% 29.71 in - SSE 4.6 mph - N/A   Clear
7:00 PM 86.0 °F 91.8 °F 71.6 °F 62% 29.74 in - South 2.3 mph - N/A   Clear
8:00 PM 87 °F - 71 °F 49% 29.75 in 6 mi SSE 3.5 mph - -  
8:00 PM 86.0 °F 90.4 °F 69.8 °F 58% 29.74 in - SSE 3.5 mph - N/A   Clear
9:00 PM 86.0 °F 89.4 °F 68.0 °F 55% 29.74 in - ESE 2.3 mph - N/A   Clear
10:00 PM 86.0 °F 91.8 °F 71.6 °F 62% 29.74 in - North 2.3 mph - N/A   Clear
11:00 PM 82.4 °F 86.3 °F 69.8 °F 66% 29.74 in - NW 5.8 mph - N/A   Clear